Tracking 29892 objects as of 21-Nov-2024
HD Live streaming from Space Station
objects crossing your sky now

NOAA 16 DEB

Track NOAA 16 DEB now!
10-day predictions


NORAD ID: 41223
Int'l Code: 2000-055EC
Perigee: 837.7 km
Apogee: 887.6 km
Inclination: 98.6 °
Period: 102.0 minutes
Semi major axis: 7233 km
RCS: Unknown
Launch date: September 21, 2000
Source: United States (US)
Launch site: AIR FORCE WESTERN TEST RANGE (AFWTR)

Note: This is SATELLITE DEBRIS
Your satellite tracking list
Your tracking list is empty




NASA's NSSDC Master Catalog

Two Line Element Set (TLE):
1 41223U 00055EC  24325.46586004  .00003328  00000-0  18600-2 0  9994
2 41223  98.6495 331.1963 0034522  85.3132 275.1982 14.11133075458983
Source of the keplerian elements: AFSPC